�������l�o���
Date,Time,MP-1(��Sv/h),MP-2(��Sv/h),MP-3(��Sv/h),MP-4(��Sv/h),MP-5(��Sv/h),MP-6(��Sv/h),MP-7(��Sv/h),MP-8(��Sv/h),����,����(m/s),���J
2017/01/06,00:00,1.099,1.842,1.201,2.104,1.444,0.567,1.037,0.963,�k��,8.9,��
2017/01/06,00:10,1.098,1.838,1.198,2.103,1.444,0.568,1.039,0.961,�k��,8.0,��
2017/01/06,00:20,1.098,1.839,1.202,2.102,1.443,0.567,1.038,0.961,�k��,8.5,��
2017/01/06,00:30,1.099,1.841,1.202,2.104,1.441,0.565,1.039,0.963,�k��,9.3,��
2017/01/06,00:40,1.102,1.838,1.200,2.103,1.444,0.566,1.038,0.963,�k��,10.2,��
2017/01/06,00:50,1.097,1.843,1.202,2.104,1.442,0.568,1.038,0.962,�k��,10.9,��
2017/01/06,01:00,1.098,1.841,1.200,2.101,1.443,0.567,1.038,0.962,�k�k��,8.8,��
2017/01/06,01:10,1.100,1.841,1.201,2.101,1.443,0.567,1.036,0.961,�k��,7.9,��
2017/01/06,01:20,1.100,1.839,1.201,2.104,1.444,0.567,1.039,0.965,�k��,8.7,��
2017/01/06,01:30,1.100,1.839,1.200,2.102,1.443,0.567,1.038,0.961,�k�k��,9.6,��
2017/01/06,01:40,1.098,1.842,1.202,2.103,1.444,0.564,1.038,0.960,�k�k��,8.3,��
2017/01/06,01:50,1.096,1.841,1.202,2.101,1.442,0.568,1.036,0.963,�k�k��,5.5,��
2017/01/06,02:00,1.098,1.839,1.200,2.105,1.441,0.566,1.036,0.964,�k�k��,6.5,��
2017/01/06,02:10,1.099,1.841,1.202,2.103,1.443,0.567,1.038,0.963,�k�k��,5.8,��
2017/01/06,02:20,1.098,1.837,1.200,2.103,1.447,0.566,1.036,0.962,�k�k��,6.6,��
2017/01/06,02:30,1.098,1.839,1.199,2.101,1.444,0.565,1.037,0.962,�k�k��,7.1,��
2017/01/06,02:40,1.098,1.839,1.198,2.101,1.444,0.567,1.037,0.962,�k�k��,7.9,��
2017/01/06,02:50,1.099,1.841,1.201,2.103,1.442,0.565,1.038,0.963,�k�k��,6.9,��
2017/01/06,03:00,1.098,1.838,1.199,2.102,1.443,0.566,1.037,0.962,�k,4.7,��
2017/01/06,03:10,1.098,1.836,1.200,2.100,1.443,0.566,1.036,0.960,�k,4.7,��
2017/01/06,03:20,1.095,1.838,1.200,2.099,1.442,0.567,1.037,0.964,�k,5.3,��
2017/01/06,03:30,1.096,1.839,1.197,2.099,1.442,0.565,1.039,0.963,�k�k��,6.1,��
2017/01/06,03:40,1.095,1.836,1.199,2.099,1.440,0.564,1.035,0.962,�k�k��,6.9,��
2017/01/06,03:50,1.097,1.840,1.200,2.098,1.438,0.567,1.036,0.962,�k�k��,7.3,��
2017/01/06,04:00,1.095,1.838,1.200,2.099,1.440,0.565,1.037,0.960,�k,7.0,��
2017/01/06,04:10,1.096,1.836,1.198,2.101,1.442,0.567,1.037,0.962,�k,8.5,��
2017/01/06,04:20,1.097,1.837,1.199,2.099,1.440,0.565,1.037,0.962,�k,7.8,��
2017/01/06,04:30,1.097,1.838,1.198,2.100,1.442,0.566,1.036,0.962,�k,8.0,��
2017/01/06,04:40,1.096,1.838,1.198,2.099,1.441,0.564,1.035,0.962,�k,7.3,��
2017/01/06,04:50,1.096,1.837,1.199,2.100,1.442,0.565,1.035,0.962,�k,8.2,��
2017/01/06,05:00,1.096,1.837,1.199,2.099,1.440,0.565,1.036,0.961,�k,7.7,��
2017/01/06,05:10,1.095,1.836,1.200,2.097,1.441,0.567,1.034,0.960,�k,9.0,��
2017/01/06,05:20,1.097,1.835,1.201,2.096,1.440,0.566,1.036,0.960,�k,8.1,��
2017/01/06,05:30,1.097,1.837,1.198,2.099,1.441,0.565,1.036,0.961,�k,8.1,��
2017/01/06,05:40,1.096,1.840,1.199,2.097,1.441,0.564,1.036,0.961,�k,8.3,��
2017/01/06,05:50,1.097,1.837,1.198,2.101,1.440,0.563,1.038,0.960,�k�k��,8.5,��
2017/01/06,06:00,1.094,1.841,1.197,2.098,1.441,0.565,1.035,0.962,�k�k��,7.5,��
2017/01/06,06:10,1.098,1.838,1.198,2.100,1.438,0.565,1.033,0.959,�k�k��,7.3,��
2017/01/06,06:20,1.096,1.836,1.199,2.099,1.438,0.563,1.035,0.959,�k�k��,6.1,��
2017/01/06,06:30,1.095,1.840,1.197,2.098,1.440,0.565,1.035,0.961,�k�k��,6.9,��
2017/01/06,06:40,1.096,1.835,1.198,2.098,1.438,0.564,1.035,0.958,�k�k��,6.8,��
2017/01/06,06:50,1.096,1.838,1.197,2.101,1.437,0.564,1.037,0.961,�k�k��,7.0,��
2017/01/06,07:00,1.094,1.836,1.196,2.096,1.441,0.565,1.035,0.960,�k�k��,7.6,��
2017/01/06,07:10,1.095,1.836,1.194,2.097,1.440,0.565,1.036,0.962,�k,6.6,��
2017/01/06,07:20,1.093,1.834,1.197,2.099,1.436,0.564,1.034,0.957,�k,6.0,��
2017/01/06,07:30,1.094,1.835,1.196,2.099,1.439,0.564,1.036,0.960,�k,6.9,��
2017/01/06,07:40,1.095,1.831,1.198,2.099,1.438,0.564,1.036,0.960,�k,7.6,��
2017/01/06,07:50,1.096,1.837,1.197,2.097,1.440,0.564,1.036,0.960,�k,8.5,��
2017/01/06,08:00,1.095,1.831,1.198,2.097,1.441,0.565,1.035,0.959,�k,7.7,��
2017/01/06,08:10,1.096,1.836,1.199,2.100,1.438,0.565,1.035,0.961,�k,7.6,��
2017/01/06,08:20,1.098,1.837,1.198,2.098,1.440,0.564,1.035,0.962,�k�k��,6.0,��
2017/01/06,08:30,1.096,1.838,1.200,2.103,1.441,0.564,1.037,0.959,�k�k��,5.6,��
2017/01/06,08:40,1.097,1.835,1.200,2.099,1.440,0.565,1.038,0.962,�k�k��,5.6,��
2017/01/06,08:50,1.098,1.840,1.200,2.103,1.441,0.564,1.038,0.962,�k�k��,6.3,��
2017/01/06,09:00,1.101,1.836,1.196,2.099,1.440,0.566,1.036,0.961,�k,7.0,��
2017/01/06,09:10,1.100,1.836,1.195,2.100,1.443,0.564,1.039,0.962,�k,5.9,��
2017/01/06,09:20,1.099,1.841,1.197,2.103,1.444,0.564,1.038,0.961,�k�k��,4.8,��
2017/01/06,09:30,1.102,1.839,1.195,2.102,1.441,0.566,1.037,0.963,�k,7.1,��
2017/01/06,09:40,1.102,1.844,1.196,2.099,1.440,0.565,1.039,0.962,�k,6.6,��
2017/01/06,09:50,1.101,1.842,1.198,2.099,1.442,0.565,1.039,0.961,�k,7.8,��
2017/01/06,10:00,1.101,1.844,1.204,2.097,1.445,0.566,1.039,0.962,�k,8.3,��
2017/01/06,10:10,1.100,1.839,1.202,2.095,1.444,0.566,1.037,0.960,�k,7.5,��
2017/01/06,10:20,1.101,1.839,1.202,2.095,1.443,0.566,1.036,0.961,�k,7.9,��
2017/01/06,10:30,1.103,1.840,1.205,2.090,1.445,0.566,1.038,0.962,�k,8.1,��
2017/01/06,10:40,1.105,1.841,1.204,2.089,1.445,0.566,1.037,0.963,�k,7.1,��
2017/01/06,10:50,1.103,1.841,1.204,2.091,1.444,0.567,1.037,0.962,�k,7.5,��
2017/01/06,11:00,1.101,1.838,1.204,2.090,1.441,0.566,1.036,0.962,�k,8.0,��
2017/01/06,11:10,1.103,1.840,1.204,2.097,1.445,0.567,1.037,0.962,�k,7.7,��
2017/01/06,11:20,1.102,1.841,1.206,2.097,1.447,0.567,1.038,0.962,�k,6.8,��
2017/01/06,11:30,1.104,1.842,1.205,2.097,1.446,0.567,1.039,0.965,�k,6.3,��
2017/01/06,11:40,1.102,1.842,1.203,2.096,1.446,0.569,1.040,0.964,�k,6.7,��
2017/01/06,11:50,1.104,1.845,1.202,2.099,1.448,0.568,1.039,0.965,�k,6.3,��
2017/01/06,12:00,1.104,1.839,1.202,2.099,1.449,0.570,1.039,0.962,�k,6.2,��
2017/01/06,12:10,1.106,1.841,1.202,2.095,1.448,0.567,1.039,0.962,�k,6.9,��
2017/01/06,12:20,1.105,1.843,1.203,2.099,1.446,0.568,1.041,0.963,�k�k��,6.3,��
2017/01/06,12:30,1.106,1.841,1.202,2.098,1.444,0.567,1.039,0.963,�k,6.4,��
2017/01/06,12:40,1.106,1.842,1.202,2.099,1.449,0.568,1.040,0.967,�k�k��,6.7,��
2017/01/06,12:50,1.105,1.843,1.200,2.098,1.449,0.568,1.041,0.964,�k�k��,8.1,��
2017/01/06,13:00,1.106,1.843,1.205,2.096,1.448,0.568,1.039,0.963,�k�k��,7.8,��
2017/01/06,13:10,1.105,1.841,1.203,2.100,1.449,0.567,1.039,0.965,�k�k��,8.0,��
2017/01/06,13:20,1.107,1.839,1.201,2.100,1.448,0.568,1.044,0.965,�k�k��,7.9,��
2017/01/06,13:30,1.106,1.844,1.201,2.098,1.451,0.568,1.041,0.964,�k,8.3,��
2017/01/06,13:40,1.107,1.846,1.203,2.101,1.448,0.569,1.040,0.964,�k,8.5,��
2017/01/06,13:50,1.107,1.842,1.201,2.097,1.450,0.567,1.042,0.965,�k,7.9,��
2017/01/06,14:00,1.104,1.847,1.204,2.098,1.448,0.568,1.041,0.966,�k,8.3,��
2017/01/06,14:10,1.104,1.846,1.204,2.099,1.449,0.568,1.039,0.964,�k,8.1,��
2017/01/06,14:20,1.106,1.844,1.205,2.100,1.449,0.568,1.040,0.963,�k,7.4,��
2017/01/06,14:30,1.106,1.846,1.204,2.098,1.448,0.569,1.040,0.965,�k�k��,7.5,��
2017/01/06,14:40,1.107,1.842,1.204,2.100,1.451,0.568,1.042,0.964,�k�k��,7.9,��
2017/01/06,14:50,1.107,1.845,1.203,2.097,1.450,0.567,1.041,0.963,�k,6.9,��
2017/01/06,15:00,1.106,1.845,1.204,2.099,1.451,0.569,1.041,0.963,�k,7.0,��
2017/01/06,15:10,1.109,1.842,1.203,2.098,1.449,0.568,1.040,0.964,�k,7.7,��
2017/01/06,15:20,1.107,1.842,1.202,2.099,1.449,0.567,1.041,0.962,�k,7.1,��
2017/01/06,15:30,1.108,1.845,1.202,2.099,1.451,0.568,1.039,0.964,�k,7.2,��
2017/01/06,15:40,1.107,1.845,1.203,2.099,1.450,0.568,1.040,0.963,�k,7.2,��
2017/01/06,15:50,1.105,1.847,1.205,2.095,1.451,0.567,1.040,0.964,�k,7.9,��
2017/01/06,16:00,1.108,1.843,1.204,2.098,1.450,0.568,1.039,0.962,�k�k��,7.2,��
2017/01/06,16:10,1.106,1.846,1.202,2.100,1.449,0.567,1.040,0.964,�k�k��,7.6,��
2017/01/06,16:20,1.104,1.848,1.202,2.101,1.448,0.568,1.039,0.963,�k�k��,7.3,��
2017/01/06,16:30,1.110,1.845,1.201,2.098,1.448,0.567,1.040,0.962,�k�k��,8.1,��
2017/01/06,16:40,1.105,1.845,1.201,2.097,1.452,0.566,1.040,0.961,�k�k��,7.5,��
2017/01/06,16:50,1.105,1.843,1.202,2.095,1.449,0.568,1.038,0.962,�k�k��,8.3,��
2017/01/06,17:00,1.105,1.843,1.201,2.097,1.448,0.566,1.040,0.963,�k�k��,7.4,��
2017/01/06,17:10,1.104,1.846,1.200,2.098,1.448,0.567,1.039,0.963,�k�k��,7.1,��
2017/01/06,17:20,1.105,1.844,1.203,2.097,1.447,0.566,1.039,0.964,�k�k��,6.7,��
2017/01/06,17:30,1.105,1.846,1.201,2.095,1.448,0.566,1.038,0.962,�k�k��,6.7,��
2017/01/06,17:40,1.103,1.843,1.201,2.095,1.449,0.566,1.039,0.963,�k�k��,6.8,��
2017/01/06,17:50,1.104,1.842,1.204,2.095,1.447,0.566,1.039,0.964,�k�k��,5.9,��
2017/01/06,18:00,1.103,1.846,1.198,2.094,1.448,0.566,1.037,0.963,�k�k��,5.3,��
2017/01/06,18:10,1.105,1.844,1.202,2.095,1.445,0.566,1.038,0.961,�k�k��,4.7,��
2017/01/06,18:20,1.102,1.845,1.200,2.091,1.446,0.565,1.038,0.961,�k�k��,5.4,��
2017/01/06,18:30,1.104,1.844,1.198,2.093,1.446,0.565,1.037,0.960,�k�k��,5.0,��
2017/01/06,18:40,1.101,1.845,1.200,2.093,1.446,0.569,1.035,0.959,�k�k��,5.5,��
2017/01/06,18:50,1.102,1.841,1.201,2.092,1.445,0.567,1.037,0.963,�k�k��,6.1,��
2017/01/06,19:00,1.100,1.842,1.198,2.094,1.447,0.566,1.037,0.962,�k�k��,5.8,��
2017/01/06,19:10,1.100,1.844,1.198,2.095,1.445,0.568,1.036,0.961,�k�k��,5.6,��
2017/01/06,19:20,1.101,1.842,1.198,2.095,1.445,0.566,1.037,0.960,�k�k��,5.4,��
2017/01/06,19:30,1.100,1.841,1.199,2.092,1.447,0.566,1.036,0.961,�k�k��,5.1,��
2017/01/06,19:40,1.102,1.839,1.197,2.090,1.448,0.567,1.038,0.960,�k�k��,5.0,��
2017/01/06,19:50,1.101,1.842,1.198,2.094,1.448,0.565,1.036,0.960,�k�k��,4.5,��
2017/01/06,20:00,1.101,1.843,1.198,2.094,1.447,0.564,1.035,0.960,�k��,3.5,��
2017/01/06,20:10,1.102,1.840,1.199,2.095,1.443,0.565,1.033,0.963,�k��,2.9,��
2017/01/06,20:20,1.100,1.844,1.200,2.090,1.449,0.566,1.035,0.960,���k��,3.0,��
2017/01/06,20:30,1.102,1.842,1.198,2.093,1.446,0.566,1.035,0.961,���k��,2.3,��
2017/01/06,20:40,1.098,1.840,1.201,2.094,1.444,0.565,1.036,0.961,��,1.5,��
2017/01/06,20:50,1.101,1.843,1.197,2.093,1.445,0.564,1.034,0.961,��,0.9,��
2017/01/06,21:00,1.103,1.839,1.199,2.092,1.445,0.565,1.035,0.961,��,1.7,��
2017/01/06,21:10,1.101,1.840,1.198,2.091,1.444,0.567,1.037,0.960,��,3.1,��
2017/01/06,21:20,1.100,1.839,1.196,2.094,1.445,0.566,1.034,0.960,���k��,2.3,��
2017/01/06,21:30,1.100,1.839,1.197,2.093,1.446,0.565,1.036,0.961,���k��,2.6,��
2017/01/06,21:40,1.100,1.840,1.199,2.091,1.445,0.565,1.037,0.960,���k��,2.2,��
2017/01/06,21:50,1.100,1.839,1.198,2.091,1.445,0.565,1.036,0.961,���쐼,2.0,��
2017/01/06,22:00,1.102,1.839,1.196,2.090,1.445,0.565,1.035,0.962,��,3.0,��
2017/01/06,22:10,1.101,1.838,1.198,2.095,1.444,0.565,1.036,0.961,���k��,3.6,��
2017/01/06,22:20,1.100,1.839,1.197,2.091,1.446,0.565,1.034,0.960,���k��,3.5,��
2017/01/06,22:30,1.099,1.840,1.199,2.092,1.445,0.566,1.038,0.961,���k��,4.1,��
2017/01/06,22:40,1.098,1.841,1.197,2.093,1.444,0.565,1.035,0.960,���k��,4.1,��
2017/01/06,22:50,1.099,1.842,1.196,2.090,1.444,0.567,1.034,0.960,���k��,4.5,��
2017/01/06,23:00,1.099,1.839,1.198,2.091,1.447,0.565,1.035,0.961,���k��,5.4,��
2017/01/06,23:10,1.098,1.840,1.197,2.093,1.444,0.563,1.035,0.961,��,6.0,��
2017/01/06,23:20,1.098,1.842,1.200,2.091,1.445,0.566,1.037,0.960,��,5.2,��
2017/01/06,23:30,1.100,1.840,1.198,2.091,1.444,0.565,1.034,0.959,���k��,5.4,��
2017/01/06,23:40,1.096,1.841,1.198,2.093,1.442,0.564,1.034,0.960,���k��,4.9,��
2017/01/06,23:50,1.100,1.840,1.196,2.090,1.442,0.564,1.035,0.961,���k��,5.7,��
